�������l�o���
Date,Time,MP-1(��Sv/h),MP-2(��Sv/h),MP-3(��Sv/h),MP-4(��Sv/h),MP-5(��Sv/h),MP-6(��Sv/h),MP-7(��Sv/h),MP-8(��Sv/h),����,����(m/s),���J
2019/05/28,00:00,0.777,1.134,0.776,1.420,1.045,0.446,0.772,0.728,��,6.4,��
2019/05/28,00:10,0.778,1.135,0.777,1.419,1.046,0.446,0.771,0.729,��,6.0,��
2019/05/28,00:20,0.778,1.135,0.774,1.418,1.046,0.446,0.773,0.728,��,6.0,��
2019/05/28,00:30,0.775,1.136,0.774,1.416,1.047,0.445,0.772,0.728,��,6.1,��
2019/05/28,00:40,0.777,1.134,0.776,1.414,1.046,0.446,0.772,0.729,��,5.7,��
2019/05/28,00:50,0.779,1.134,0.776,1.418,1.046,0.444,0.774,0.727,��,5.8,��
2019/05/28,01:00,0.776,1.134,0.777,1.418,1.043,0.445,0.773,0.728,��,5.5,��
2019/05/28,01:10,0.777,1.134,0.775,1.416,1.044,0.445,0.771,0.728,��,5.6,��
2019/05/28,01:20,0.776,1.136,0.775,1.417,1.047,0.445,0.771,0.728,��,6.6,��
2019/05/28,01:30,0.774,1.135,0.776,1.419,1.046,0.445,0.773,0.730,��,6.9,��
2019/05/28,01:40,0.777,1.136,0.775,1.418,1.046,0.446,0.773,0.728,��,7.2,��
2019/05/28,01:50,0.777,1.134,0.777,1.419,1.045,0.446,0.772,0.729,��,6.6,��
2019/05/28,02:00,0.777,1.133,0.774,1.418,1.043,0.444,0.772,0.728,��,7.0,��
2019/05/28,02:10,0.778,1.135,0.776,1.418,1.047,0.446,0.772,0.729,��,6.1,��
2019/05/28,02:20,0.776,1.136,0.776,1.417,1.046,0.445,0.772,0.727,��,5.1,��
2019/05/28,02:30,0.779,1.135,0.775,1.418,1.048,0.446,0.774,0.730,��,5.1,��
2019/05/28,02:40,0.776,1.134,0.776,1.419,1.044,0.447,0.773,0.728,��,5.7,��
2019/05/28,02:50,0.778,1.136,0.776,1.418,1.045,0.445,0.773,0.728,��쓌,5.4,��
2019/05/28,03:00,0.778,1.136,0.776,1.418,1.046,0.445,0.772,0.729,��쓌,3.8,��
2019/05/28,03:10,0.777,1.136,0.778,1.417,1.045,0.445,0.772,0.729,��,4.1,��
2019/05/28,03:20,0.777,1.133,0.775,1.416,1.044,0.445,0.774,0.729,��,4.8,��
2019/05/28,03:30,0.777,1.134,0.776,1.419,1.046,0.447,0.773,0.728,��쐼,3.3,��
2019/05/28,03:40,0.776,1.134,0.778,1.420,1.048,0.446,0.771,0.728,��쐼,2.3,��
2019/05/28,03:50,0.778,1.134,0.777,1.419,1.047,0.447,0.772,0.728,���쐼,2.0,��
2019/05/28,04:00,0.777,1.136,0.777,1.413,1.047,0.446,0.773,0.729,��,1.2,��
2019/05/28,04:10,0.778,1.136,0.776,1.418,1.044,0.446,0.772,0.730,�k��,1.9,��
2019/05/28,04:20,0.777,1.133,0.776,1.416,1.044,0.445,0.773,0.730,�k,1.2,��
2019/05/28,04:30,0.777,1.136,0.775,1.418,1.044,0.446,0.772,0.728,�k�k��,1.2,��
2019/05/28,04:40,0.778,1.133,0.776,1.419,1.045,0.446,0.773,0.728,�k�k��,1.5,��
2019/05/28,04:50,0.776,1.133,0.775,1.417,1.044,0.445,0.774,0.728,�k�k��,2.6,��
2019/05/28,05:00,0.779,1.135,0.775,1.418,1.043,0.445,0.770,0.728,�k,2.8,��
2019/05/28,05:10,0.776,1.133,0.775,1.419,1.045,0.446,0.773,0.729,�k�k��,2.0,��
2019/05/28,05:20,0.775,1.135,0.777,1.417,1.046,0.446,0.773,0.731,�k,3.1,��
2019/05/28,05:30,0.778,1.135,0.777,1.417,1.044,0.446,0.772,0.730,�k�k��,2.3,��
2019/05/28,05:40,0.780,1.134,0.778,1.417,1.046,0.445,0.774,0.729,�k�k��,2.0,��
2019/05/28,05:50,0.777,1.134,0.775,1.417,1.043,0.446,0.771,0.729,�k�k��,1.7,��
2019/05/28,06:00,0.777,1.134,0.777,1.416,1.045,0.445,0.771,0.729,�k��,1.5,��
2019/05/28,06:10,0.777,1.133,0.774,1.416,1.047,0.446,0.772,0.731,�k�k��,2.3,��
2019/05/28,06:20,0.778,1.133,0.776,1.418,1.045,0.445,0.773,0.730,�k��,2.5,��
2019/05/28,06:30,0.779,1.134,0.776,1.415,1.047,0.446,0.772,0.731,�k�k��,1.7,��
2019/05/28,06:40,0.777,1.134,0.777,1.417,1.048,0.445,0.771,0.730,�k,1.7,��
2019/05/28,06:50,0.777,1.133,0.777,1.418,1.046,0.445,0.772,0.730,�k�k��,1.2,��
2019/05/28,07:00,0.779,1.134,0.777,1.414,1.046,0.445,0.772,0.729,�k�k��,2.2,��
2019/05/28,07:10,0.778,1.135,0.779,1.415,1.044,0.444,0.772,0.729,�k�k��,2.8,��
2019/05/28,07:20,0.777,1.134,0.779,1.416,1.047,0.444,0.771,0.729,�k�k��,1.7,��
2019/05/28,07:30,0.777,1.131,0.777,1.414,1.045,0.444,0.771,0.730,�k,2.0,��
2019/05/28,07:40,0.777,1.131,0.776,1.417,1.046,0.443,0.770,0.728,�k�k��,2.9,��
2019/05/28,07:50,0.775,1.133,0.775,1.417,1.046,0.444,0.770,0.730,�k�k��,4.0,��
2019/05/28,08:00,0.775,1.130,0.775,1.415,1.044,0.441,0.771,0.728,�k�k��,4.1,��
2019/05/28,08:10,0.773,1.127,0.775,1.415,1.043,0.440,0.771,0.728,�k�k��,4.2,��
2019/05/28,08:20,0.772,1.127,0.775,1.412,1.045,0.441,0.770,0.726,�k,4.6,��
2019/05/28,08:30,0.772,1.125,0.774,1.413,1.041,0.442,0.770,0.727,�k,4.1,��
2019/05/28,08:40,0.773,1.126,0.773,1.412,1.042,0.442,0.770,0.727,�k,2.6,��
2019/05/28,08:50,0.774,1.125,0.772,1.414,1.044,0.441,0.770,0.726,�k,1.2,��
2019/05/28,09:00,0.775,1.128,0.773,1.414,1.044,0.443,0.771,0.728,�k��,2.3,��
2019/05/28,09:10,0.775,1.127,0.775,1.415,1.042,0.442,0.770,0.726,�k,2.3,��
2019/05/28,09:20,0.775,1.124,0.775,1.410,1.040,0.442,0.771,0.727,�k,1.7,��
2019/05/28,09:30,0.776,1.126,0.776,1.416,1.042,0.442,0.772,0.725,�k,2.2,��
2019/05/28,09:40,0.775,1.124,0.775,1.415,1.041,0.442,0.770,0.726,�k,3.3,��
2019/05/28,09:50,0.775,1.127,0.775,1.414,1.044,0.442,0.773,0.727,�k,2.5,��
2019/05/28,10:00,0.776,1.127,0.775,1.413,1.045,0.444,0.771,0.728,�k,3.0,��
2019/05/28,10:10,0.778,1.128,0.774,1.413,1.043,0.444,0.771,0.726,�k,1.2,��
2019/05/28,10:20,0.776,1.129,0.776,1.413,1.044,0.443,0.770,0.727,�k�k��,1.7,��
2019/05/28,10:30,0.775,1.126,0.772,1.415,1.043,0.442,0.771,0.727,�k�k��,3.4,��
2019/05/28,10:40,0.775,1.129,0.773,1.413,1.042,0.442,0.771,0.726,�k�k��,2.9,��
2019/05/28,10:50,0.777,1.131,0.775,1.410,1.045,0.442,0.772,0.726,�k��,1.7,��
2019/05/28,11:00,0.776,1.129,0.773,1.411,1.046,0.442,0.772,0.727,���k��,2.0,��
2019/05/28,11:10,0.777,1.131,0.774,1.410,1.044,0.441,0.770,0.727,���k��,3.2,��
2019/05/28,11:20,0.776,1.126,0.773,1.411,1.040,0.441,0.771,0.728,�k��,2.6,��
2019/05/28,11:30,0.776,1.128,0.772,1.411,1.043,0.442,0.772,0.727,�k�k��,2.8,��
2019/05/28,11:40,0.775,1.130,0.774,1.411,1.045,0.442,0.773,0.727,�k��,4.5,��
2019/05/28,11:50,0.777,1.131,0.774,1.414,1.045,0.443,0.771,0.727,�k�k��,5.0,��
2019/05/28,12:00,0.775,1.132,0.776,1.411,1.045,0.443,0.772,0.727,�k�k��,5.4,��
2019/05/28,12:10,0.777,1.130,0.773,1.412,1.043,0.442,0.773,0.728,�k��,4.5,��
2019/05/28,12:20,0.777,1.129,0.775,1.414,1.044,0.443,0.771,0.727,�k��,4.2,��
2019/05/28,12:30,0.776,1.131,0.775,1.414,1.046,0.442,0.772,0.728,���k��,2.6,��
2019/05/28,12:40,0.779,1.132,0.774,1.415,1.044,0.441,0.772,0.726,�k��,3.0,��
2019/05/28,12:50,0.777,1.128,0.776,1.415,1.044,0.442,0.773,0.727,���쓌,3.3,��
2019/05/28,13:00,0.778,1.132,0.776,1.415,1.043,0.442,0.771,0.727,�쓌,2.0,��
2019/05/28,13:10,0.779,1.130,0.776,1.417,1.046,0.441,0.771,0.728,�k��,2.0,��
2019/05/28,13:20,0.778,1.130,0.774,1.414,1.045,0.442,0.771,0.726,���쓌,1.5,��
2019/05/28,13:30,0.778,1.128,0.775,1.415,1.045,0.443,0.773,0.730,��쓌,1.7,��
2019/05/28,13:40,0.777,1.130,0.775,1.416,1.045,0.442,0.773,0.727,��,1.2,��
2019/05/28,13:50,0.779,1.127,0.775,1.416,1.044,0.443,0.771,0.729,��,1.2,��
2019/05/28,14:00,0.779,1.129,0.777,1.417,1.046,0.441,0.774,0.728,��쓌,1.7,��
2019/05/28,14:10,0.779,1.130,0.777,1.415,1.045,0.442,0.773,0.728,���쓌,0.8,��
2019/05/28,14:20,0.777,1.128,0.775,1.414,1.045,0.442,0.774,0.729,�k��,1.2,��
2019/05/28,14:30,0.779,1.131,0.780,1.416,1.047,0.441,0.774,0.728,�k�k��,1.7,��
2019/05/28,14:40,0.777,1.131,0.779,1.415,1.045,0.443,0.773,0.729,�k�k��,1.7,�L
2019/05/28,14:50,0.780,1.133,0.778,1.414,1.048,0.442,0.774,0.729,���k��,1.7,��
2019/05/28,15:00,0.778,1.132,0.779,1.416,1.050,0.443,0.774,0.729,�k�k��,1.2,��
2019/05/28,15:10,0.780,1.136,0.779,1.418,1.048,0.443,0.772,0.729,�k�k��,1.7,��
2019/05/28,15:20,0.779,1.136,0.779,1.421,1.050,0.441,0.775,0.729,�k��,1.7,��
2019/05/28,15:30,0.779,1.132,0.779,1.417,1.048,0.442,0.772,0.728,�k�k��,2.2,��
2019/05/28,15:40,0.778,1.131,0.777,1.420,1.049,0.442,0.774,0.728,�k,1.5,�L
2019/05/28,15:50,0.781,1.134,0.779,1.418,1.049,0.443,0.773,0.728,�k�k��,2.2,�L
2019/05/28,16:00,0.781,1.134,0.778,1.417,1.049,0.445,0.776,0.728,�k,2.6,��
2019/05/28,16:10,0.780,1.132,0.779,1.418,1.050,0.444,0.773,0.730,�k,2.8,��
2019/05/28,16:20,0.783,1.135,0.781,1.417,1.051,0.443,0.774,0.728,�k�k��,2.3,��
2019/05/28,16:30,0.781,1.131,0.779,1.417,1.051,0.442,0.774,0.729,�k�k��,1.7,��
2019/05/28,16:40,0.782,1.133,0.780,1.422,1.053,0.444,0.774,0.729,�k��,2.0,��
2019/05/28,16:50,0.782,1.132,0.779,1.419,1.047,0.444,0.775,0.730,�k��,1.2,��
2019/05/28,17:00,0.782,1.135,0.779,1.420,1.049,0.444,0.775,0.730,���k��,1.7,��
2019/05/28,17:10,0.782,1.135,0.777,1.421,1.050,0.444,0.775,0.730,���k��,1.5,��
2019/05/28,17:20,0.781,1.132,0.778,1.419,1.049,0.444,0.774,0.731,��,2.0,��
2019/05/28,17:30,0.779,1.133,0.780,1.420,1.050,0.444,0.774,0.731,���k��,1.2,��
2019/05/28,17:40,0.779,1.134,0.780,1.417,1.049,0.443,0.774,0.731,���k��,1.2,��
2019/05/28,17:50,0.780,1.135,0.779,1.420,1.049,0.441,0.774,0.730,���k��,1.2,��
2019/05/28,18:00,0.780,1.135,0.781,1.419,1.047,0.444,0.774,0.730,�k��,1.4,��
2019/05/28,18:10,0.781,1.132,0.779,1.421,1.049,0.444,0.774,0.731,�k�k��,1.7,��
2019/05/28,18:20,0.780,1.135,0.779,1.420,1.049,0.443,0.774,0.730,�k�k��,1.2,��
2019/05/28,18:30,0.782,1.134,0.780,1.419,1.050,0.442,0.774,0.731,�k�k��,1.2,��
2019/05/28,18:40,0.781,1.132,0.777,1.420,1.049,0.443,0.777,0.730,�k��,2.3,��
2019/05/28,18:50,0.781,1.134,0.780,1.420,1.050,0.444,0.775,0.732,���k��,2.3,��
2019/05/28,19:00,0.782,1.134,0.779,1.420,1.049,0.444,0.774,0.730,���k��,2.3,��
2019/05/28,19:10,0.781,1.133,0.780,1.421,1.051,0.442,0.772,0.729,�k��,2.3,��
2019/05/28,19:20,0.780,1.132,0.780,1.420,1.049,0.444,0.772,0.730,�k��,2.0,��
2019/05/28,19:30,0.782,1.136,0.777,1.418,1.049,0.442,0.773,0.732,�k��,1.4,��
2019/05/28,19:40,0.780,1.136,0.779,1.420,1.050,0.441,0.773,0.730,�k,0.9,��
2019/05/28,19:50,0.780,1.132,0.777,1.420,1.050,0.444,0.775,0.731,�k�k��,0.8,��
2019/05/28,20:00,0.781,1.134,0.778,1.421,1.050,0.443,0.775,0.730,�k��,1.2,��
2019/05/28,20:10,0.780,1.134,0.782,1.421,1.049,0.443,0.774,0.732,�k��,0.9,��
2019/05/28,20:20,0.778,1.132,0.778,1.421,1.051,0.442,0.774,0.729,�k��,0.9,��
2019/05/28,20:30,0.780,1.130,0.780,1.422,1.048,0.442,0.774,0.728,���k��,0.6,��
2019/05/28,20:40,0.781,1.133,0.780,1.423,1.051,0.443,0.774,0.729,��,1.5,��
2019/05/28,20:50,0.781,1.133,0.780,1.419,1.051,0.443,0.774,0.731,���쓌,0.8,�L
2019/05/28,21:00,0.778,1.134,0.780,1.422,1.047,0.442,0.773,0.729,��쓌,0.9,�L
2019/05/28,21:10,0.779,1.134,0.781,1.421,1.048,0.443,0.775,0.730,�k��,0.6,��
2019/05/28,21:20,0.781,1.135,0.780,1.422,1.049,0.444,0.777,0.732,-,CALM,��
2019/05/28,21:30,0.781,1.135,0.780,1.420,1.049,0.444,0.774,0.729,-,CALM,�L
2019/05/28,21:40,0.781,1.134,0.781,1.420,1.049,0.444,0.774,0.731,��,0.6,��
2019/05/28,21:50,0.780,1.133,0.779,1.423,1.049,0.443,0.775,0.731,-,CALM,��
2019/05/28,22:00,0.780,1.133,0.779,1.423,1.050,0.443,0.775,0.732,��,0.6,��
2019/05/28,22:10,0.781,1.131,0.781,1.422,1.049,0.444,0.775,0.731,���k��,0.8,��
2019/05/28,22:20,0.783,1.132,0.782,1.421,1.052,0.444,0.774,0.731,-,CALM,�L
2019/05/28,22:30,0.779,1.133,0.778,1.422,1.051,0.445,0.773,0.731,�k��,1.4,�L
2019/05/28,22:40,0.779,1.134,0.780,1.422,1.051,0.444,0.775,0.730,�k�k��,1.5,�L
2019/05/28,22:50,0.779,1.132,0.779,1.424,1.051,0.445,0.774,0.731,�k,1.2,��
2019/05/28,23:00,0.779,1.135,0.779,1.423,1.050,0.443,0.774,0.730,�k�k��,1.2,��
2019/05/28,23:10,0.779,1.133,0.781,1.423,1.051,0.444,0.774,0.730,�k�k��,2.0,��
2019/05/28,23:20,0.780,1.135,0.781,1.421,1.051,0.445,0.775,0.730,�k,1.4,��
2019/05/28,23:30,0.781,1.134,0.781,1.421,1.049,0.443,0.774,0.732,�k,2.5,��
2019/05/28,23:40,0.782,1.132,0.781,1.424,1.048,0.444,0.774,0.731,�k,2.6,��
2019/05/28,23:50,0.782,1.134,0.779,1.424,1.049,0.445,0.774,0.729,�k�k��,3.1,��
